TimePDT,TemperatureF,Dew PointF,Humidity,Sea Level PressureIn,VisibilityMPH,Wind Direction,Wind SpeedMPH,Gust SpeedMPH,PrecipitationIn,Events,Conditions,WindDirDegrees,DateUTC
12:52 AM,90.0,46.9,23,29.63,10.0,NNW,12.7,-,N/A,,Clear,330,2013-09-17 07:52:00
1:52 AM,90.0,42.1,19,29.63,10.0,NNW,10.4,-,N/A,,Clear,330,2013-09-17 08:52:00
2:52 AM,89.1,39.9,18,29.62,10.0,North,5.8,-,N/A,,Clear,350,2013-09-17 09:52:00
3:52 AM,88.0,39.0,18,29.61,10.0,NNW,10.4,-,N/A,,Clear,330,2013-09-17 10:52:00
4:52 AM,87.1,39.0,18,29.61,10.0,NW,8.1,-,N/A,,Clear,320,2013-09-17 11:52:00
5:52 AM,88.0,35.1,15,29.62,10.0,NW,10.4,-,N/A,,Clear,320,2013-09-17 12:52:00
6:52 AM,77.0,42.1,29,29.64,10.0,Calm,Calm,-,N/A,,Clear,0,2013-09-17 13:52:00
7:52 AM,84.0,50.0,31,29.67,10.0,NNE,3.5,-,N/A,,Clear,20,2013-09-17 14:52:00
8:52 AM,93.0,42.1,17,29.64,10.0,NW,5.8,-,N/A,,Clear,310,2013-09-17 15:52:00
9:52 AM,98.1,37.9,12,29.64,10.0,NNW,5.8,-,N/A,,Clear,330,2013-09-17 16:52:00
10:52 AM,100.9,35.1,10,29.63,10.0,Calm,Calm,-,N/A,,Clear,0,2013-09-17 17:52:00
11:52 AM,102.9,37.0,10,29.61,10.0,Variable,3.5,-,N/A,,Clear,0,2013-09-17 18:52:00
12:52 PM,105.1,42.1,12,29.58,10.0,SSE,9.2,-,N/A,,Clear,160,2013-09-17 19:52:00
1:52 PM,106.0,37.0,9,29.56,10.0,SE,9.2,-,N/A,,Clear,140,2013-09-17 20:52:00
2:52 PM,107.1,30.9,7,29.53,10.0,NE,4.6,-,N/A,,Clear,50,2013-09-17 21:52:00
3:52 PM,107.1,27.0,6,29.52,10.0,SSE,10.4,-,N/A,,Clear,160,2013-09-17 22:52:00
4:52 PM,107.1,28.0,6,29.51,10.0,Calm,Calm,-,N/A,,Clear,0,2013-09-17 23:52:00
5:52 PM,102.9,32.0,8,29.51,10.0,NNW,10.4,19.6,N/A,,Clear,340,2013-09-18 00:52:00
6:52 PM,99.0,32.0,10,29.52,10.0,NNW,12.7,-,N/A,,Clear,330,2013-09-18 01:52:00
7:52 PM,93.9,37.9,14,29.54,10.0,NNW,10.4,-,N/A,,Clear,340,2013-09-18 02:52:00
8:52 PM,91.0,39.0,16,29.55,10.0,NNW,16.1,21.9,N/A,,Clear,330,2013-09-18 03:52:00
9:52 PM,88.0,43.0,21,29.57,9.0,NW,13.8,-,N/A,,Clear,320,2013-09-18 04:52:00
10:52 PM,87.1,39.9,19,29.57,10.0,NNW,21.9,27.6,N/A,,Clear,330,2013-09-18 05:52:00
11:52 PM,87.1,35.1,16,29.57,10.0,NNW,17.3,27.6,N/A,,Clear,330,2013-09-18 06:52:00